Location: Blanot
(47.1713°N, 4.2340°E)
Time: 20:27:41
(UTC+00:00)

Cosmos 2082 Rocket - Pass Details

Date: 14 July 2020
Orbit: 834 x 853 km, 71.0° (Epoch: 14 August)

Event Time Altitude Azimuth Distance (km) Brightness Sun altitude
Exits shadow 00:40:56 10° 129° (SE) 2,511 4.4 -20.2°
Reaches altitude 10° 00:41:06 10° 128° (SE) 2,479 4.4 -20.2°
Maximum altitude 00:44:00 14° 97° (E) 2,183 4.4 -20.1°
Drops below altitude 10° 00:46:55 10° 66° (ENE) 2,486 5.1 -20.0°
Sets 00:50:32 0° 43° (NE) 3,426 6.4 -19.8°
